CAL10 RCTP-KLAX

Flight info

Callsign CAL10
Flight time N/A
Altitude 31000
Route MOLKA1A ROBIN R583 BORDO Z29 GAKIA Y293 GUSLU/N0494F330 Y293 YULIA Y57 POROT Y809 IDLAN Y812 ADNAP OTR5 KALNA DCT 42N160E 43N170E 43N180E/N0476F350 43N170W 43N160W 43N150W 41N140W 39N130W/N0472F370 DCT DACEM DCT PIRAT DCT BURGL IRNMN2
Aircraft B77W/H-SDE1E2E3FGHIJ2J3J4J5M1RWXY/LB1D1

Departure

Time N/A
Airport Taiwan Taoyuan International Airport (RCTP)

Arrival

Time 2026-04-24 15:14
Airport Los Angeles International Airport (KLAX)
Time Latitude Longitude Altitude Speed Heading
2026-04-24 14:34 36.48284 -121.49389 37040 ft 525 kts 130°
2026-04-24 14:34 36.44739 -121.43258 37042 ft 525 kts 130°
2026-04-24 14:35 36.39785 -121.34708 37041 ft 525 kts 130°
2026-04-24 14:35 36.36226 -121.28579 37041 ft 525 kts 130°
2026-04-24 14:36 36.31944 -121.21219 37035 ft 526 kts 130°
2026-04-24 14:36 36.27647 -121.13848 37040 ft 526 kts 130°
2026-04-24 14:37 36.23344 -121.06485 37032 ft 527 kts 130°
2026-04-24 14:37 36.19037 -120.99129 37031 ft 528 kts 131°
2026-04-24 14:38 36.14742 -120.91808 37023 ft 528 kts 131°
2026-04-24 14:38 36.10417 -120.84456 37023 ft 529 kts 131°
2026-04-24 14:39 36.06089 -120.77108 37016 ft 529 kts 131°
2026-04-24 14:39 36.01741 -120.69747 37024 ft 529 kts 131°
2026-04-24 14:40 35.97408 -120.62424 37034 ft 530 kts 131°
2026-04-24 14:40 35.93050 -120.55076 37038 ft 531 kts 131°
2026-04-24 14:41 35.88704 -120.47764 37032 ft 531 kts 132°
2026-04-24 14:41 35.84309 -120.40384 37035 ft 531 kts 132°
2026-04-24 14:42 35.79925 -120.33037 37033 ft 531 kts 132°
2026-04-24 14:42 35.75567 -120.25751 37024 ft 532 kts 132°
2026-04-24 14:43 35.71172 -120.18414 37013 ft 533 kts 132°
2026-04-24 14:43 35.66672 -120.11175 37001 ft 527 kts 140°
2026-04-24 14:43 35.63891 -120.08362 37006 ft 508 kts 155°
2026-04-24 14:44 35.60868 -120.06160 37017 ft 506 kts 157°
2026-04-24 14:44 35.57840 -120.04008 36984 ft 495 kts 157°
2026-04-24 14:44 35.54916 -120.01898 36986 ft 479 kts 157°
2026-04-24 14:45 35.49300 -119.97745 36482 ft 468 kts 157°
2026-04-24 14:45 35.46530 -119.95668 36062 ft 464 kts 157°
2026-04-24 14:45 35.43793 -119.93608 35631 ft 459 kts 157°
2026-04-24 14:45 35.41082 -119.91567 35204 ft 455 kts 157°
2026-04-24 14:46 35.38400 -119.89550 34783 ft 451 kts 157°
2026-04-24 14:46 35.35760 -119.87570 34357 ft 448 kts 158°
2026-04-24 14:46 35.33117 -119.85590 33919 ft 444 kts 158°
2026-04-24 14:46 35.30478 -119.83614 33424 ft 442 kts 158°
2026-04-24 14:47 35.27888 -119.81632 32969 ft 441 kts 155°
2026-04-24 14:47 35.25382 -119.79424 32540 ft 441 kts 152°
2026-04-24 14:47 35.22973 -119.77127 32116 ft 439 kts 151°
2026-04-24 14:47 35.20583 -119.74802 31688 ft 436 kts 151°
2026-04-24 14:48 35.18217 -119.72514 31269 ft 432 kts 151°
2026-04-24 14:48 35.15852 -119.70259 30871 ft 429 kts 152°
2026-04-24 14:48 35.13503 -119.68046 30461 ft 426 kts 152°
2026-04-24 14:48 35.11181 -119.65876 30042 ft 423 kts 153°
2026-04-24 14:49 35.08850 -119.63707 29557 ft 421 kts 153°
2026-04-24 14:49 35.06523 -119.61545 29124 ft 417 kts 152°
2026-04-24 14:49 35.04225 -119.59410 28701 ft 414 kts 152°
2026-04-24 14:49 35.01942 -119.57290 28269 ft 411 kts 152°
2026-04-24 14:50 34.99671 -119.55182 27861 ft 408 kts 152°
2026-04-24 14:50 34.97423 -119.53098 27439 ft 405 kts 152°
2026-04-24 14:50 34.95180 -119.51017 27019 ft 403 kts 152°
2026-04-24 14:50 34.92954 -119.48955 26609 ft 401 kts 152°
2026-04-24 14:51 34.90734 -119.46907 26199 ft 399 kts 152°
2026-04-24 14:51 34.88507 -119.44899 25779 ft 397 kts 152°
2026-04-24 14:51 34.86282 -119.42915 25368 ft 396 kts 152°
2026-04-24 14:51 34.84062 -119.40939 24959 ft 394 kts 152°
2026-04-24 14:52 34.81879 -119.38994 24554 ft 394 kts 152°
2026-04-24 14:52 34.79678 -119.37029 24141 ft 393 kts 151°
2026-04-24 14:52 34.77470 -119.35057 23723 ft 393 kts 151°
2026-04-24 14:52 34.75268 -119.33092 23273 ft 392 kts 151°
2026-04-24 14:53 34.73060 -119.31141 22799 ft 391 kts 151°
2026-04-24 14:53 34.70861 -119.29221 22360 ft 389 kts 151°
2026-04-24 14:53 34.68667 -119.27308 21951 ft 387 kts 151°
2026-04-24 14:53 34.66484 -119.25403 21536 ft 384 kts 151°
2026-04-24 14:54 34.64313 -119.23512 21140 ft 382 kts 151°
2026-04-24 14:54 34.62145 -119.21641 20715 ft 381 kts 151°
2026-04-24 14:54 34.59983 -119.19781 20315 ft 380 kts 150°
2026-04-24 14:54 34.57835 -119.17933 19908 ft 379 kts 150°
2026-04-24 14:55 34.56407 -119.16703 19616 ft 378 kts 150°
2026-04-24 14:55 34.53838 -119.14448 19159 ft 377 kts 149°
2026-04-24 14:55 34.51827 -119.12661 18779 ft 377 kts 149°
2026-04-24 14:55 34.49715 -119.10781 18368 ft 377 kts 149°
2026-04-24 14:56 34.47593 -119.08899 17900 ft 377 kts 149°
2026-04-24 14:56 34.45477 -119.07026 17472 ft 376 kts 149°
2026-04-24 14:56 34.43367 -119.05168 17037 ft 374 kts 149°
2026-04-24 14:56 34.41252 -119.03333 16629 ft 373 kts 149°
2026-04-24 14:57 34.39149 -119.01517 16224 ft 371 kts 149°
2026-04-24 14:57 34.37054 -118.99706 15807 ft 369 kts 149°
2026-04-24 14:57 34.34961 -118.97897 15411 ft 368 kts 149°
2026-04-24 14:57 34.32893 -118.96078 15014 ft 367 kts 148°
2026-04-24 14:58 34.30847 -118.94214 14606 ft 366 kts 147°
2026-04-24 14:58 34.28817 -118.92358 14207 ft 365 kts 147°
2026-04-24 14:58 34.26789 -118.90512 13800 ft 365 kts 147°
2026-04-24 14:58 34.24762 -118.88669 13355 ft 363 kts 147°
2026-04-24 14:59 34.22779 -118.86848 12936 ft 362 kts 146°
2026-04-24 14:59 34.20782 -118.85010 12528 ft 360 kts 146°
2026-04-24 14:59 34.18795 -118.83183 12151 ft 358 kts 146°
2026-04-24 14:59 34.16838 -118.81385 11998 ft 349 kts 146°
2026-04-24 15:00 34.14979 -118.79540 11797 ft 342 kts 141°
2026-04-24 15:00 34.13257 -118.77649 11621 ft 334 kts 140°
2026-04-24 15:00 34.11580 -118.75772 11529 ft 323 kts 140°
2026-04-24 15:00 34.09939 -118.73954 11239 ft 319 kts 140°
2026-04-24 15:01 34.08314 -118.72175 11046 ft 312 kts 141°
2026-04-24 15:01 34.06736 -118.70458 10796 ft 306 kts 141°
2026-04-24 15:01 34.05160 -118.68750 10800 ft 309 kts 141°
2026-04-24 15:01 34.03631 -118.66923 10764 ft 311 kts 127°
2026-04-24 15:02 34.02750 -118.64534 10750 ft 316 kts 102°
2026-04-24 15:02 34.02489 -118.61912 10760 ft 316 kts 96°
2026-04-24 15:02 34.02270 -118.59261 10768 ft 319 kts 97°
2026-04-24 15:02 34.02033 -118.56601 10769 ft 318 kts 97°
2026-04-24 15:03 34.01792 -118.53969 10569 ft 315 kts 97°
2026-04-24 15:03 34.01782 -118.53854 10561 ft 315 kts 97°
2026-04-24 15:04 34.01613 -118.52030 10340 ft 314 kts 97°
2026-04-24 15:04 34.01368 -118.49428 10047 ft 312 kts 97°
2026-04-24 15:05 34.01124 -118.46838 9718 ft 310 kts 96°
2026-04-24 15:05 34.01140 -118.44268 9349 ft 305 kts 80°
2026-04-24 15:05 34.01571 -118.41778 9048 ft 302 kts 76°
2026-04-24 15:05 34.02054 -118.39324 8703 ft 301 kts 76°
2026-04-24 15:06 34.02513 -118.36863 8379 ft 299 kts 77°
2026-04-24 15:06 34.02915 -118.34434 8020 ft 298 kts 81°
2026-04-24 15:06 34.03170 -118.32006 7498 ft 286 kts 83°
2026-04-24 15:06 34.03384 -118.29672 7001 ft 276 kts 84°
2026-04-24 15:07 34.03611 -118.27411 6503 ft 269 kts 82°
2026-04-24 15:07 34.03847 -118.25185 6016 ft 266 kts 83°
2026-04-24 15:07 34.04075 -118.22980 5515 ft 264 kts 83°
2026-04-24 15:07 34.04300 -118.20788 5037 ft 263 kts 83°
2026-04-24 15:08 34.04523 -118.18610 4535 ft 261 kts 83°
2026-04-24 15:08 34.04507 -118.16446 4008 ft 257 kts 106°
2026-04-24 15:08 34.03684 -118.14597 3506 ft 247 kts 135°
2026-04-24 15:08 34.02280 -118.13580 3153 ft 228 kts 164°
2026-04-24 15:09 34.00754 -118.13184 3000 ft 224 kts 170°
2026-04-24 15:09 33.99178 -118.12945 2965 ft 229 kts 182°
2026-04-24 15:09 33.97672 -118.13525 2956 ft 231 kts 214°
2026-04-24 15:09 33.96650 -118.15019 2698 ft 237 kts 246°
2026-04-24 15:10 33.96458 -118.16965 2401 ft 236 kts 278°
2026-04-24 15:10 33.96762 -118.18847 2264 ft 222 kts 277°
2026-04-24 15:10 33.96898 -118.20614 2235 ft 205 kts 270°
2026-04-24 15:10 33.96903 -118.22279 2205 ft 191 kts 268°
2026-04-24 15:11 33.96734 -118.25225 2215 ft 189 kts 262°
2026-04-24 15:11 33.96578 -118.26788 2233 ft 188 kts 261°
2026-04-24 15:11 33.96423 -118.28311 2126 ft 183 kts 261°
2026-04-24 15:12 33.96272 -118.29784 1883 ft 171 kts 261°
2026-04-24 15:12 33.95986 -118.32590 1414 ft 165 kts 261°
2026-04-24 15:12 33.95852 -118.33906 1185 ft 151 kts 262°
2026-04-24 15:13 33.95726 -118.35133 987 ft 147 kts 262°
2026-04-24 15:13 33.95601 -118.36364 819 ft 149 kts 262°
2026-04-24 15:13 33.95476 -118.37611 605 ft 148 kts 264°
2026-04-24 15:13 33.95354 -118.38817 378 ft 145 kts 263°
2026-04-24 15:14 33.95228 -118.40014 172 ft 142 kts 263°
2026-04-24 15:14 33.95115 -118.41145 110 ft 124 kts 262°
2026-04-24 15:14 33.95026 -118.41989 112 ft 80 kts 263°
2026-04-24 15:14 33.94962 -118.42465 110 ft 36 kts 249°
2026-04-24 15:15 33.94895 -118.42614 109 ft 17 kts 233°
2026-04-24 15:15 33.94802 -118.42726 110 ft 20 kts 211°
2026-04-24 15:15 33.94675 -118.42774 109 ft 12 kts 176°
2026-04-24 15:15 33.94641 -118.42716 105 ft 12 kts 97°
2026-04-24 15:16 33.94645 -118.42624 104 ft 13 kts 83°
2026-04-24 15:16 33.94660 -118.42478 107 ft 22 kts 82°
2026-04-24 15:16 33.94680 -118.42260 104 ft 30 kts 79°
2026-04-24 15:16 33.94704 -118.42032 105 ft 24 kts 84°
2026-04-24 15:17 33.94723 -118.41834 104 ft 24 kts 83°
2026-04-24 15:17 33.94744 -118.41637 103 ft 24 kts 83°
2026-04-24 15:17 33.94758 -118.41455 106 ft 16 kts 99°
2026-04-24 15:17 33.94756 -118.41427 104 ft 4 kts 84°
2026-04-24 15:18 33.94777 -118.41358 106 ft 13 kts 79°
2026-04-24 15:18 33.94685 -118.41283 101 ft 23 kts 172°
2026-04-24 15:18 33.94524 -118.41258 101 ft 23 kts 173°
2026-04-24 15:18 33.94363 -118.41234 100 ft 23 kts 173°
2026-04-24 15:19 33.94200 -118.41209 101 ft 23 kts 171°
2026-04-24 15:19 33.94070 -118.41189 101 ft 15 kts 172°
2026-04-24 15:19 33.94022 -118.41149 102 ft 6 kts 108°
2026-04-24 15:19 33.94019 -118.41098 102 ft 6 kts 88°
2026-04-24 15:20 33.94021 -118.41076 100 ft 0 kts 83°